Time,TemperatureF,DewpointF,PressureIn,WindDirection,WindDirectionDegrees,WindSpeedMPH,WindSpeedGustMPH,Humidity,HourlyPrecipIn,Conditions,Clouds,dailyrainin,SolarRadiationWatts/m^2,SoftwareType,DateUTC
2013-02-13 00:02:00,5.0,-1.0,-100.00,South,184,1.0,6.0,77,0.00,,,-99.99,0.000000,,2013-02-13 07:02:00,
2013-02-13 00:11:00,5.0,-1.0,-100.00,South,184,1.0,6.0,77,0.00,,,-99.99,0.000000,,2013-02-13 07:11:00,
2013-02-13 00:42:00,3.0,-1.0,-100.00,SSW,209,4.0,6.0,83,0.00,,,0.00,0.000000,,2013-02-13 07:42:00,
2013-02-13 00:52:00,3.0,-1.0,-100.00,SSW,209,4.0,6.0,83,0.00,,,0.00,0.000000,,2013-02-13 07:52:00,
2013-02-13 01:01:00,3.0,-1.0,-100.00,SSW,209,4.0,6.0,83,0.00,,,0.00,0.000000,,2013-02-13 08:01:00,
2013-02-13 01:11:00,3.0,-1.0,-100.00,SSW,209,4.0,6.0,83,0.00,,,0.00,0.000000,,2013-02-13 08:11:00,
2013-02-13 01:43:00,1.0,-4.0,-100.00,NE,46,1.0,6.0,78,0.00,,,0.00,0.000000,,2013-02-13 08:43:00,
2013-02-13 01:52:00,1.0,-4.0,-100.00,NE,46,1.0,6.0,78,0.00,,,0.00,0.000000,,2013-02-13 08:52:00,
2013-02-13 02:01:00,1.0,-4.0,-100.00,NE,46,1.0,6.0,78,0.00,,,0.00,0.000000,,2013-02-13 09:01:00,
2013-02-13 02:42:00,0.0,-4.0,-100.00,SW,218,2.0,2.0,81,0.00,,,0.00,0.000000,,2013-02-13 09:42:00,
2013-02-13 02:52:00,0.0,-4.0,-100.00,SW,218,2.0,2.0,81,0.00,,,0.00,0.000000,,2013-02-13 09:52:00,
2013-02-13 03:01:00,0.0,-4.0,-100.00,SW,218,2.0,2.0,81,0.00,,,0.00,0.000000,,2013-02-13 10:01:00,
2013-02-13 03:11:00,0.0,-99.9,-100.00,SW,218,2.0,2.0,81,0.00,,,0.00,0.000000,,2013-02-13 10:11:00,
2013-02-13 03:42:00,-3.0,-9.0,-100.00,WSW,247,0.0,2.0,74,0.00,,,0.00,0.000000,,2013-02-13 10:42:00,
2013-02-13 03:52:00,-3.0,-9.0,-100.00,WSW,247,0.0,2.0,74,0.00,,,0.00,0.000000,,2013-02-13 10:52:00,
2013-02-13 04:01:00,-3.0,-9.0,-100.00,WSW,247,0.0,2.0,74,0.00,,,0.00,0.000000,,2013-02-13 11:01:00,
2013-02-13 04:32:00,-3.0,-9.0,-100.00,SSE,163,1.0,3.0,76,-99.99,,,0.00,0.000000,,2013-02-13 11:32:00,
2013-02-13 04:42:00,-3.0,-9.0,-100.00,SSE,163,1.0,3.0,76,-99.99,,,0.00,0.000000,,2013-02-13 11:42:00,
2013-02-13 04:52:00,-3.0,-9.0,-100.00,SSE,163,1.0,3.0,76,-99.99,,,0.00,0.000000,,2013-02-13 11:52:00,
2013-02-13 05:02:00,-3.0,-9.0,-100.00,SSE,163,1.0,3.0,76,-99.99,,,0.00,0.000000,,2013-02-13 12:02:00,
2013-02-13 05:42:00,-2.0,-8.0,-100.00,NE,37,1.0,4.0,76,-99.99,,,0.00,0.000000,,2013-02-13 12:42:00,
2013-02-13 05:52:00,-2.0,-8.0,-100.00,NE,37,1.0,4.0,76,-99.99,,,0.00,0.000000,,2013-02-13 12:52:00,
2013-02-13 06:02:00,-2.0,-8.0,-100.00,NE,37,1.0,4.0,76,-99.99,,,0.00,0.000000,,2013-02-13 13:02:00,
2013-02-13 06:42:00,-1.0,-7.0,-100.00,SW,232,2.0,9.0,76,-99.99,,,0.00,0.000000,,2013-02-13 13:42:00,
2013-02-13 06:52:00,-1.0,-7.0,-100.00,SW,232,2.0,9.0,76,-99.99,,,0.00,0.000000,,2013-02-13 13:52:00,
2013-02-13 07:01:00,-1.0,-7.0,-100.00,SW,232,2.0,9.0,76,-99.99,,,0.00,0.000000,,2013-02-13 14:01:00,
2013-02-13 07:42:00,-2.0,-8.0,-100.00,South,185,1.0,5.0,76,0.00,,,0.00,0.000000,,2013-02-13 14:42:00,
2013-02-13 07:52:00,-2.0,-8.0,-100.00,South,185,1.0,5.0,76,0.00,,,0.00,0.000000,,2013-02-13 14:52:00,
2013-02-13 08:01:00,-2.0,-8.0,-100.00,South,185,1.0,5.0,76,0.00,,,0.00,0.000000,,2013-02-13 15:01:00,
2013-02-13 08:42:00,5.0,-2.0,-100.00,ENE,59,2.0,5.0,73,-99.99,,,0.00,75.000000,,2013-02-13 15:42:00,
2013-02-13 08:52:00,5.0,-2.0,-100.00,ENE,59,2.0,5.0,73,-99.99,,,0.00,75.000000,,2013-02-13 15:52:00,
2013-02-13 09:01:00,5.0,-2.0,-100.00,ENE,59,2.0,5.0,73,-99.99,,,0.00,75.000000,,2013-02-13 16:01:00,
2013-02-13 09:11:00,5.0,-2.0,-100.00,ENE,59,2.0,5.0,73,-99.99,,,0.00,75.000000,,2013-02-13 16:11:00,
2013-02-13 09:42:00,19.0,9.0,-100.00,NE,47,2.0,4.0,65,-99.99,,,0.00,289.000000,,2013-02-13 16:42:00,
2013-02-13 09:52:00,19.0,9.0,-100.00,NE,47,2.0,4.0,65,-99.99,,,0.00,289.000000,,2013-02-13 16:52:00,
2013-02-13 10:01:00,19.0,9.0,-100.00,NE,47,2.0,4.0,65,-99.99,,,0.00,289.000000,,2013-02-13 17:01:00,
2013-02-13 10:11:00,19.0,9.0,-100.00,NE,47,2.0,4.0,65,-99.99,,,0.00,289.000000,,2013-02-13 17:11:00,
2013-02-13 10:42:00,37.0,14.0,-100.00,SSW,207,5.0,6.0,39,-99.99,,,0.00,476.000000,,2013-02-13 17:42:00,
2013-02-13 10:52:00,37.0,14.0,-100.00,SSW,207,5.0,6.0,39,-99.99,,,0.00,476.000000,,2013-02-13 17:52:00,
2013-02-13 11:01:00,37.0,14.0,-100.00,SSW,207,5.0,6.0,39,-99.99,,,0.00,476.000000,,2013-02-13 18:01:00,
2013-02-13 11:11:00,37.0,14.0,-100.00,SSW,207,5.0,6.0,39,-99.99,,,0.00,476.000000,,2013-02-13 18:11:00,
2013-02-13 11:42:00,46.0,16.0,-100.00,SSE,154,5.0,7.0,30,0.00,,,0.00,630.000000,,2013-02-13 18:42:00,
2013-02-13 11:52:00,46.0,16.0,-100.00,SSE,154,5.0,7.0,30,0.00,,,0.00,630.000000,,2013-02-13 18:52:00,
2013-02-13 12:01:00,46.0,16.0,-100.00,SSE,154,5.0,7.0,30,0.00,,,0.00,630.000000,,2013-02-13 19:01:00,
2013-02-13 12:42:00,57.0,20.0,-100.00,NNW,346,1.0,7.0,23,-99.99,,,0.00,723.000000,,2013-02-13 19:42:00,
2013-02-13 12:52:00,57.0,20.0,-100.00,NNW,346,1.0,7.0,23,-99.99,,,0.00,723.000000,,2013-02-13 19:52:00,
2013-02-13 13:02:00,57.0,20.0,-100.00,NNW,346,1.0,7.0,23,-99.99,,,0.00,723.000000,,2013-02-13 20:02:00,
2013-02-13 13:42:00,44.0,16.0,-100.00,North,1,13.0,20.0,32,-99.99,,,0.00,750.000000,,2013-02-13 20:42:00,
2013-02-13 13:52:00,44.0,16.0,-100.00,North,1,13.0,20.0,32,-99.99,,,0.00,750.000000,,2013-02-13 20:52:00,
2013-02-13 14:01:00,44.0,16.0,-100.00,North,1,13.0,20.0,32,-99.99,,,0.00,750.000000,,2013-02-13 21:01:00,
2013-02-13 14:11:00,44.0,16.0,-100.00,North,1,13.0,20.0,32,-99.99,,,0.00,750.000000,,2013-02-13 21:11:00,
2013-02-13 14:42:00,45.0,18.0,-100.00,NNW,334,11.0,20.0,33,0.00,,,0.00,708.000000,,2013-02-13 21:42:00,
2013-02-13 14:52:00,45.0,18.0,-100.00,NNW,334,11.0,20.0,33,0.00,,,0.00,708.000000,,2013-02-13 21:52:00,
2013-02-13 15:02:00,45.0,18.0,-100.00,NNW,334,11.0,20.0,33,0.00,,,0.00,708.000000,,2013-02-13 22:02:00,
2013-02-13 15:11:00,45.0,18.0,-100.00,NNW,334,11.0,20.0,33,0.00,,,0.00,708.000000,,2013-02-13 22:11:00,
2013-02-13 15:42:00,45.0,18.0,-100.00,NNW,333,11.0,16.0,33,0.00,,,0.00,604.000000,,2013-02-13 22:42:00,
2013-02-13 15:52:00,45.0,18.0,-100.00,NNW,333,11.0,16.0,33,0.00,,,0.00,604.000000,,2013-02-13 22:52:00,
2013-02-13 16:01:00,45.0,18.0,-100.00,NNW,333,11.0,16.0,33,0.00,,,0.00,604.000000,,2013-02-13 23:01:00,
2013-02-13 16:11:00,45.0,18.0,-100.00,NNW,333,11.0,16.0,33,0.00,,,0.00,604.000000,,2013-02-13 23:11:00,
2013-02-13 16:42:00,44.0,17.0,-100.00,North,350,10.0,15.0,34,0.00,,,0.00,446.000000,,2013-02-13 23:42:00,
2013-02-13 16:52:00,44.0,17.0,-100.00,North,350,10.0,15.0,34,0.00,,,0.00,446.000000,,2013-02-13 23:52:00,
2013-02-13 17:01:00,44.0,17.0,-100.00,North,350,10.0,15.0,34,0.00,,,0.00,446.000000,,2013-02-14 00:01:00,
2013-02-13 17:11:00,44.0,17.0,-100.00,North,350,10.0,15.0,34,0.00,,,0.00,446.000000,,2013-02-14 00:11:00,
2013-02-13 17:42:00,43.0,17.0,-100.00,ENE,74,7.0,13.0,35,0.00,,,0.00,253.000000,,2013-02-14 00:42:00,
2013-02-13 17:52:00,43.0,17.0,-100.00,ENE,74,7.0,13.0,35,0.00,,,0.00,253.000000,,2013-02-14 00:52:00,
2013-02-13 18:01:00,43.0,17.0,-100.00,ENE,74,7.0,13.0,35,0.00,,,0.00,253.000000,,2013-02-14 01:01:00,
2013-02-13 18:11:00,43.0,17.0,-100.00,ENE,74,7.0,13.0,35,0.00,,,0.00,253.000000,,2013-02-14 01:11:00,
2013-02-13 18:42:00,34.0,15.0,-100.00,WSW,247,2.0,10.0,46,0.00,,,-99.99,52.000000,,2013-02-14 01:42:00,
2013-02-13 18:51:00,34.0,15.0,-100.00,WSW,247,2.0,10.0,46,0.00,,,-99.99,52.000000,,2013-02-14 01:51:00,
2013-02-13 19:01:00,34.0,15.0,-100.00,WSW,247,2.0,10.0,46,0.00,,,-99.99,52.000000,,2013-02-14 02:01:00,
2013-02-13 19:11:00,34.0,15.0,-100.00,WSW,247,2.0,10.0,46,0.00,,,-99.99,52.000000,,2013-02-14 02:11:00,
2013-02-13 20:02:00,25.0,15.0,-100.00,ESE,117,3.0,5.0,66,0.00,,,0.00,0.000000,,2013-02-14 03:02:00,
2013-02-13 20:11:00,25.0,15.0,-100.00,ESE,117,3.0,5.0,66,0.00,,,0.00,0.000000,,2013-02-14 03:11:00,
2013-02-13 20:42:00,18.0,12.0,-100.00,SSW,199,2.0,5.0,77,-99.99,,,0.00,0.000000,,2013-02-14 03:42:00,
2013-02-13 20:52:00,18.0,12.0,-100.00,SSW,199,2.0,5.0,77,-99.99,,,0.00,0.000000,,2013-02-14 03:52:00,
2013-02-13 21:01:00,18.0,12.0,-100.00,SSW,199,2.0,5.0,77,-99.99,,,0.00,0.000000,,2013-02-14 04:01:00,
2013-02-13 21:32:00,16.0,10.0,-100.00,SW,223,3.0,5.0,78,-99.99,,,0.00,0.000000,,2013-02-14 04:32:00,
2013-02-13 21:42:00,16.0,10.0,-100.00,SW,223,3.0,5.0,78,-99.99,,,0.00,0.000000,,2013-02-14 04:42:00,
2013-02-13 21:52:00,16.0,10.0,-100.00,SW,223,3.0,5.0,78,-99.99,,,0.00,0.000000,,2013-02-14 04:52:00,
2013-02-13 22:01:00,16.0,10.0,-100.00,SW,223,3.0,5.0,78,-99.99,,,0.00,0.000000,,2013-02-14 05:01:00,
2013-02-13 22:42:00,12.0,7.0,-100.00,SW,226,3.0,6.0,81,0.00,,,0.00,0.000000,,2013-02-14 05:42:00,
2013-02-13 22:52:00,12.0,7.0,-100.00,SW,226,3.0,6.0,81,0.00,,,0.00,0.000000,,2013-02-14 05:52:00,
2013-02-13 23:01:00,12.0,7.0,-100.00,SW,226,3.0,6.0,81,0.00,,,0.00,0.000000,,2013-02-14 06:01:00,
2013-02-13 23:42:00,10.0,6.0,-100.00,SW,226,4.0,5.0,82,-99.99,,,0.00,0.000000,,2013-02-14 06:42:00,
2013-02-13 23:52:00,10.0,6.0,-100.00,SW,226,4.0,5.0,82,-99.99,,,0.00,0.000000,,2013-02-14 06:52:00,